Regional Weather Roundup
Issued by NWS Little Rock, AR

Current Version | Previous Version | Text Only | Print | Product List | Glossary On
Versions: 1 2 3 4 5 6 7 8 9 10 11 12 13 14 15 16 17 18 19 20 21 22 23 24 25 26 27 28 29 30 31 32
000
ASUS44 KLZK 251305
RWRLZK

WEATHER ROUNDUP FOR ARKANSAS
NATIONAL WEATHER SERVICE LITTLE ROCK AR
800 AM CDT THU MAY 25 2017

NOTE: "FAIR" INDICATES FEW OR NO CLOUDS BELOW 12,000 FEET WITH NO
SIGNIFICANT WEATHER AND/OR OBSTRUCTIONS TO VISIBILITY.

ARZ001-003-010-029-251400-
NORTHWEST ARKANSAS

CITY           SKY/WX    TMP DP  RH WIND       PRES   REMARKS
FAYETTEVILLE   SUNNY     49  48  97 CALM      29.79R
FORT SMITH     MOSUNNY   55  51  86 E3        29.79R
HARRISON       SUNNY     54  52  93 S3        29.79R
BENTONVILLE    SUNNY     55  48  76 S3        29.79R
ROGERS         SUNNY     54  49  83 SE6       29.79R
SILOAM SPGS    SUNNY     52  46  82 E3        29.77S
HIGHFILL       SUNNY     53  49  86 SE5       29.78R
SPRINGDALE     SUNNY     54  48  82 S5        29.81R
$$

ARZ004-005-016-251400-
NORTH CENTRAL ARKANSAS

CITY           SKY/WX    TMP DP  RH WIND       PRES   REMARKS
BATESVILLE     SUNNY     55  52  88 CALM      29.79R
FLIPPIN        SUNNY     54  46  76 CALM      29.77R
MTN HOME       SUNNY     53  52  96 SW3       29.78R
$$

ARZ040-041-251400-
WEST CENTRAL ARKANSAS

CITY           SKY/WX    TMP DP  RH WIND       PRES   REMARKS
MENA           MOSUNNY   55  54  94 CALM      29.83R
MOUNT IDA      SUNNY     53  49  86 CALM      29.79R
$$

ARZ009-017-025-026-028-251400-
NORTHEAST ARKANSAS

CITY           SKY/WX    TMP DP  RH WIND       PRES   REMARKS
JONESBORO      SUNNY     59  52  77 NW7       29.76R
WALNUT RIDGE   SUNNY     55  48  76 W8        29.77R
BLYTHEVILLE    SUNNY     59  53  80 NW6       29.75R
NW BLYTHEVILLE SUNNY     54  45  71 W8        29.75
$$

ARZ022-023-033-042-044-251400-
CENTRAL ARKANSAS

CITY           SKY/WX    TMP DP  RH WIND       PRES   REMARKS
LITTLE ROCK    SUNNY     56  53  90 SW5       29.81R
N LITTLE ROCK    N/A     60  53  77 W3        29.81R
JACKSONVILLE   SUNNY     58  54  86 CALM      29.79S
CONWAY           N/A     57  54  88 CALM      29.79S
SEARCY         SUNNY     57  54  89 CALM      29.82R
HOT SPRINGS    SUNNY     57  52  83 NW3       29.82R
RUSSELLVILLE   SUNNY     55  52  89 W3        29.81R
$$

ARZ036-251400-
EAST ARKANSAS

CITY           SKY/WX    TMP DP  RH WIND       PRES   REMARKS
WEST MEMPHIS   SUNNY     57  55  93 VRB5      29.77R
$$

ARZ050-053-066-070-073-251400-
SOUTHWEST ARKANSAS

CITY           SKY/WX    TMP DP  RH WIND       PRES   REMARKS
ARKADELPHIA    FAIR      55  51  86 CALM      29.84R
CAMDEN         SUNNY     57  52  82 SW3       29.84R
TEXARKANA      MOSUNNY   60  52  74 SE5       29.82R
EL DORADO      SUNNY     56  52  86 SW5       29.85R
DE QUEEN       SUNNY     54  53  97 E5        29.81R
$$

ARZ056-057-069-251400-
SOUTHEAST ARKANSAS

CITY           SKY/WX    TMP DP  RH WIND       PRES   REMARKS
PINE BLUFF     SUNNY     57  52  83 SW5       29.83R
STUTTGART      SUNNY     61  46  59 W6        29.82R
MONTICELLO     SUNNY     60  53  77 W5        29.83R

$$






USA.gov is the U.S. government's official web portal to all federal, state and local government web resources and services.